Tracking 27126 objects as of 30-Mar-2023
HD Live streaming from Space Station
objects crossing your sky now

RESURS O1 DEB

Track RESURS O1 DEB now!
10-day predictions


NORAD ID: 46874
Int'l Code: 1994-074BE
Perigee: 523.1 km
Apogee: 529.5 km
Inclination: 97.8 °
Period: 95.0 minutes
Semi major axis: 6897 km
RCS: Unknown
Launch date: November 4, 1994
Source: Commonwealth of Independent States (former USSR) (CIS)
Launch site: TYURATAM MISSILE AND SPACE COMPLEX (TTMTR)

Note: This is SATELLITE DEBRIS
Your satellite tracking list
Your tracking list is empty




NASA's NSSDC Master Catalog

Two Line Element Set (TLE):
1 46874U 94074BE  23088.68668618  .00233541  00000-0  11916-1 0  9990
2 46874  97.8223 144.5896 0004618 201.3575 158.7464 15.15608562130245
Source of the keplerian elements: AFSPC